Year,Month,Day,Hour,Minute,Value (Times are PST for temperature in C)
2016,11,22,00,00,8.50
2016,11,22,00,01,8.60
2016,11,22,00,02,8.60
2016,11,22,00,03,8.60
2016,11,22,00,04,8.60
2016,11,22,00,05,8.60
2016,11,22,00,06,8.60
2016,11,22,00,07,8.70
2016,11,22,00,08,8.70
2016,11,22,00,09,8.70
2016,11,22,00,10,8.70
2016,11,22,00,11,8.70
2016,11,22,00,12,8.80
2016,11,22,00,13,8.80
2016,11,22,00,14,8.80
2016,11,22,00,15,8.80
2016,11,22,00,16,8.80
2016,11,22,00,17,8.80
2016,11,22,00,18,8.80
2016,11,22,00,19,8.80
2016,11,22,00,20,8.80
2016,11,22,00,21,8.80
2016,11,22,00,22,8.80
2016,11,22,00,23,8.80
2016,11,22,00,24,8.80
2016,11,22,00,25,8.80
2016,11,22,00,26,8.80
2016,11,22,00,27,8.80
2016,11,22,00,28,8.90
2016,11,22,00,29,8.90
2016,11,22,00,30,8.90
2016,11,22,00,31,8.90
2016,11,22,00,32,8.90
2016,11,22,00,33,8.90
2016,11,22,00,34,8.90
2016,11,22,00,35,8.90
2016,11,22,00,36,8.90
2016,11,22,00,37,8.90
2016,11,22,00,38,8.90
2016,11,22,00,39,8.90
2016,11,22,00,40,8.90
2016,11,22,00,41,8.90
2016,11,22,00,42,8.90
2016,11,22,00,43,8.90
2016,11,22,00,44,8.90
2016,11,22,00,45,8.90
2016,11,22,00,46,8.90
2016,11,22,00,47,8.90
2016,11,22,00,48,8.90
2016,11,22,00,49,8.90
2016,11,22,00,50,8.90
2016,11,22,00,51,8.80
2016,11,22,00,52,8.80
2016,11,22,00,53,8.80
2016,11,22,00,54,8.80
2016,11,22,00,55,8.80
2016,11,22,00,56,8.80
2016,11,22,00,57,8.80
2016,11,22,00,58,8.80
2016,11,22,00,59,8.80
2016,11,22,01,00,8.80
2016,11,22,01,01,8.80
2016,11,22,01,02,8.80
2016,11,22,01,03,8.80
2016,11,22,01,04,8.80
2016,11,22,01,05,8.80
2016,11,22,01,06,8.90
2016,11,22,01,07,8.90
2016,11,22,01,08,8.90
2016,11,22,01,09,8.90
2016,11,22,01,10,8.90
2016,11,22,01,11,8.90
2016,11,22,01,12,8.90
2016,11,22,01,13,8.90
2016,11,22,01,14,8.90
2016,11,22,01,15,8.90
2016,11,22,01,16,8.90
2016,11,22,01,17,8.90
2016,11,22,01,18,8.90
2016,11,22,01,19,8.90
2016,11,22,01,20,8.90
2016,11,22,01,21,8.90
2016,11,22,01,22,8.90
2016,11,22,01,23,8.90
2016,11,22,01,24,8.90
2016,11,22,01,25,8.90
2016,11,22,01,26,8.90
2016,11,22,01,27,8.90
2016,11,22,01,28,8.90
2016,11,22,01,29,8.90
2016,11,22,01,30,8.90
2016,11,22,01,31,8.90
2016,11,22,01,32,8.90
2016,11,22,01,33,8.90
2016,11,22,01,34,8.90
2016,11,22,01,35,8.90
2016,11,22,01,36,8.80
2016,11,22,01,37,8.80
2016,11,22,01,38,8.80
2016,11,22,01,39,8.80
2016,11,22,01,40,8.80
2016,11,22,01,41,8.80
2016,11,22,01,42,8.80
2016,11,22,01,43,8.80
2016,11,22,01,44,8.80
2016,11,22,01,45,8.80
2016,11,22,01,46,8.80
2016,11,22,01,47,8.80
2016,11,22,01,48,8.80
2016,11,22,01,49,8.80
2016,11,22,01,50,8.80
2016,11,22,01,51,8.80
2016,11,22,01,52,8.80
2016,11,22,01,53,8.80
2016,11,22,01,54,8.80
2016,11,22,01,55,8.80
2016,11,22,01,56,8.80
2016,11,22,01,57,8.80
2016,11,22,01,58,8.80
2016,11,22,01,59,8.80
2016,11,22,02,00,8.80
2016,11,22,02,01,8.80
2016,11,22,02,02,8.80
2016,11,22,02,03,8.80
2016,11,22,02,04,8.80
2016,11,22,02,05,8.80
2016,11,22,02,06,8.80
2016,11,22,02,07,8.80
2016,11,22,02,08,8.80
2016,11,22,02,09,8.90
2016,11,22,02,10,8.90
2016,11,22,02,11,8.90
2016,11,22,02,12,8.90
2016,11,22,02,13,8.90
2016,11,22,02,14,9.00
2016,11,22,02,15,9.00
2016,11,22,02,16,9.00
2016,11,22,02,17,9.10
2016,11,22,02,18,9.10
2016,11,22,02,19,9.10
2016,11,22,02,20,9.10
2016,11,22,02,21,9.10
2016,11,22,02,22,9.10
2016,11,22,02,23,9.10
2016,11,22,02,24,9.10
2016,11,22,02,25,9.10
2016,11,22,02,26,9.10
2016,11,22,02,27,9.10
2016,11,22,02,28,9.10
2016,11,22,02,29,9.10
2016,11,22,02,30,9.10
2016,11,22,02,31,9.10
2016,11,22,02,32,9.10
2016,11,22,02,33,9.10
2016,11,22,02,34,9.10
2016,11,22,02,35,9.20
2016,11,22,02,36,9.20
2016,11,22,02,37,9.20
2016,11,22,02,38,9.20
2016,11,22,02,39,9.20
2016,11,22,02,40,9.20
2016,11,22,02,41,9.20
2016,11,22,02,42,9.20
2016,11,22,02,43,9.20
2016,11,22,02,44,9.20
2016,11,22,02,45,9.30
2016,11,22,02,46,9.30
2016,11,22,02,47,9.30
2016,11,22,02,48,9.30
2016,11,22,02,49,9.30
2016,11,22,02,50,9.30
2016,11,22,02,51,9.30
2016,11,22,02,52,9.30
2016,11,22,02,53,9.30
2016,11,22,02,54,9.30
2016,11,22,02,55,9.30
2016,11,22,02,56,9.30
2016,11,22,02,57,9.30
2016,11,22,02,58,9.30
2016,11,22,02,59,9.30
2016,11,22,03,00,9.30
2016,11,22,03,01,9.30
2016,11,22,03,02,9.30
2016,11,22,03,03,9.30
2016,11,22,03,04,9.30
2016,11,22,03,05,9.30
2016,11,22,03,06,9.30
2016,11,22,03,07,9.30
2016,11,22,03,08,9.30
2016,11,22,03,09,9.30
2016,11,22,03,10,9.30
2016,11,22,03,11,9.30
2016,11,22,03,12,9.30
2016,11,22,03,13,9.30
2016,11,22,03,14,9.30
2016,11,22,03,15,9.40
2016,11,22,03,16,9.40
2016,11,22,03,17,9.40
2016,11,22,03,18,9.40
2016,11,22,03,19,9.40
2016,11,22,03,20,9.40
2016,11,22,03,21,9.40
2016,11,22,03,22,9.50
2016,11,22,03,23,9.50
2016,11,22,03,24,9.50
2016,11,22,03,25,9.50
2016,11,22,03,26,9.50
2016,11,22,03,27,9.50
2016,11,22,03,28,9.50
2016,11,22,03,29,9.50
2016,11,22,03,30,9.50
2016,11,22,03,31,9.50
2016,11,22,03,32,9.50
2016,11,22,03,33,9.60
2016,11,22,03,34,9.60
2016,11,22,03,35,9.60
2016,11,22,03,36,9.60
2016,11,22,03,37,9.60
2016,11,22,03,38,9.60
2016,11,22,03,39,9.60
2016,11,22,03,40,9.60
2016,11,22,03,41,9.60
2016,11,22,03,42,9.60
2016,11,22,03,43,9.60
2016,11,22,03,44,9.60
2016,11,22,03,45,9.60
2016,11,22,03,46,9.60
2016,11,22,03,47,9.60
2016,11,22,03,48,9.60
2016,11,22,03,49,9.70
2016,11,22,03,50,9.70
2016,11,22,03,51,9.70
2016,11,22,03,52,9.70
2016,11,22,03,53,9.70
2016,11,22,03,54,9.70
2016,11,22,03,55,9.70
2016,11,22,03,56,9.70
2016,11,22,03,57,9.70
2016,11,22,03,58,9.70
2016,11,22,03,59,9.70
2016,11,22,04,00,9.70
2016,11,22,04,01,9.70
2016,11,22,04,02,9.70
2016,11,22,04,03,9.70
2016,11,22,04,04,9.70
2016,11,22,04,05,9.70
2016,11,22,04,06,9.70
2016,11,22,04,07,9.70
2016,11,22,04,08,9.70
2016,11,22,04,09,9.70
2016,11,22,04,10,9.70
2016,11,22,04,11,9.70
2016,11,22,04,12,9.70
2016,11,22,04,13,9.70
2016,11,22,04,14,9.70
2016,11,22,04,15,9.70
2016,11,22,04,16,9.70
2016,11,22,04,17,9.70
2016,11,22,04,18,9.70
2016,11,22,04,19,9.70
2016,11,22,04,20,9.70
2016,11,22,04,21,9.70
2016,11,22,04,22,9.70
2016,11,22,04,23,9.70
2016,11,22,04,24,9.70
2016,11,22,04,25,9.70
2016,11,22,04,26,9.80
2016,11,22,04,27,9.80
2016,11,22,04,28,9.80
2016,11,22,04,29,9.80
2016,11,22,04,30,9.80
2016,11,22,04,31,9.80
2016,11,22,04,32,9.80
2016,11,22,04,33,9.80
2016,11,22,04,34,9.80
2016,11,22,04,35,9.80
2016,11,22,04,36,9.80
2016,11,22,04,37,9.80
2016,11,22,04,38,9.80
2016,11,22,04,39,9.80
2016,11,22,04,40,9.80
2016,11,22,04,41,9.80
2016,11,22,04,42,9.80
2016,11,22,04,43,9.80
2016,11,22,04,44,9.80
2016,11,22,04,45,9.80
2016,11,22,04,46,9.80
2016,11,22,04,47,9.80
2016,11,22,04,48,9.80
2016,11,22,04,49,9.80
2016,11,22,04,50,9.80
2016,11,22,04,51,9.80
2016,11,22,04,52,9.80
2016,11,22,04,53,9.80
2016,11,22,04,54,9.80
2016,11,22,04,55,9.80
2016,11,22,04,56,9.90
2016,11,22,04,57,9.90
2016,11,22,04,58,9.90
2016,11,22,04,59,9.90
2016,11,22,05,00,9.90
2016,11,22,05,01,9.90
2016,11,22,05,02,9.90
2016,11,22,05,03,9.90
2016,11,22,05,04,9.90
2016,11,22,05,05,9.90
2016,11,22,05,06,9.90
2016,11,22,05,07,9.90
2016,11,22,05,08,10.00
2016,11,22,05,09,10.00
2016,11,22,05,10,10.00
2016,11,22,05,11,10.00
2016,11,22,05,12,10.00
2016,11,22,05,13,10.00
2016,11,22,05,14,10.00
2016,11,22,05,15,10.00
2016,11,22,05,16,10.00
2016,11,22,05,17,10.00
2016,11,22,05,18,10.00
2016,11,22,05,19,10.00
2016,11,22,05,20,10.00
2016,11,22,05,21,10.00
2016,11,22,05,22,10.10
2016,11,22,05,23,10.10
2016,11,22,05,24,10.10
2016,11,22,05,25,10.10
2016,11,22,05,26,10.10
2016,11,22,05,27,10.10
2016,11,22,05,28,10.10
2016,11,22,05,29,10.10
2016,11,22,05,30,10.10
2016,11,22,05,31,10.10
2016,11,22,05,32,10.10
2016,11,22,05,33,10.00
2016,11,22,05,34,10.00
2016,11,22,05,35,10.00
2016,11,22,05,36,10.00
2016,11,22,05,37,10.00
2016,11,22,05,38,10.00
2016,11,22,05,39,10.00
2016,11,22,05,40,10.00
2016,11,22,05,41,10.00
2016,11,22,05,42,9.90
2016,11,22,05,43,9.80
2016,11,22,05,44,9.80
2016,11,22,05,45,9.80
2016,11,22,05,46,9.80
2016,11,22,05,47,9.80
2016,11,22,05,48,9.80
2016,11,22,05,49,9.80
2016,11,22,05,50,9.80
2016,11,22,05,51,9.80
2016,11,22,05,52,9.80
2016,11,22,10,18,8.80
2016,11,22,10,19,8.80
2016,11,22,10,20,8.80
2016,11,22,10,21,8.80
2016,11,22,10,22,8.80
2016,11,22,10,23,8.80
2016,11,22,10,24,8.80
2016,11,22,10,25,8.80
2016,11,22,10,26,8.80
2016,11,22,10,27,8.80
2016,11,22,10,28,8.80
2016,11,22,10,29,8.80
2016,11,22,10,30,8.80
2016,11,22,10,31,8.80
2016,11,22,10,32,8.80
2016,11,22,10,33,8.80
2016,11,22,10,34,8.80
2016,11,22,10,35,8.80
2016,11,22,10,36,8.80
2016,11,22,10,37,8.80
2016,11,22,10,38,8.80
2016,11,22,10,39,8.80
2016,11,22,10,40,8.80
2016,11,22,10,41,8.80
2016,11,22,10,42,8.80
2016,11,22,10,43,8.80
2016,11,22,10,44,8.80
2016,11,22,10,45,8.80
2016,11,22,10,46,8.80
2016,11,22,10,47,8.80
2016,11,22,10,48,8.80
2016,11,22,10,49,8.80
2016,11,22,10,50,8.80
2016,11,22,10,51,8.80
2016,11,22,10,52,8.80
2016,11,22,10,53,8.80
2016,11,22,10,54,8.80
2016,11,22,10,55,8.80
2016,11,22,10,56,8.80
2016,11,22,10,57,8.80
2016,11,22,10,58,8.80
2016,11,22,10,59,8.80
2016,11,22,11,00,8.80
2016,11,22,11,01,8.80
2016,11,22,11,02,8.80
2016,11,22,11,03,8.80
2016,11,22,11,04,8.80
2016,11,22,11,05,8.80
2016,11,22,11,06,8.80
2016,11,22,11,07,8.80
2016,11,22,11,08,8.80
2016,11,22,11,09,8.70
2016,11,22,11,10,8.70
2016,11,22,11,11,8.70
2016,11,22,11,12,8.70
2016,11,22,11,13,8.70
2016,11,22,11,14,8.70
2016,11,22,11,15,8.70
2016,11,22,11,16,8.70
2016,11,22,11,17,8.70
2016,11,22,11,18,8.70
2016,11,22,11,19,8.70
2016,11,22,11,20,8.70
2016,11,22,11,21,8.70
2016,11,22,11,22,8.70
2016,11,22,11,23,8.70
2016,11,22,11,24,8.70
2016,11,22,11,25,8.70
2016,11,22,11,26,8.70
2016,11,22,11,27,8.70
2016,11,22,11,28,8.70
2016,11,22,11,29,8.70
2016,11,22,11,30,8.70
2016,11,22,11,31,8.70
2016,11,22,11,32,8.70
2016,11,22,11,33,8.70
2016,11,22,11,34,8.70
2016,11,22,11,35,8.70
2016,11,22,11,36,8.70
2016,11,22,11,37,8.70
2016,11,22,11,38,8.70
2016,11,22,11,39,8.70
2016,11,22,11,40,8.70
2016,11,22,11,41,8.70
2016,11,22,11,42,8.70
2016,11,22,11,43,8.70
2016,11,22,11,44,8.70
2016,11,22,11,45,8.70
2016,11,22,11,46,8.70
2016,11,22,11,47,8.70
2016,11,22,11,48,8.70
2016,11,22,11,49,8.70
2016,11,22,11,50,8.70
2016,11,22,11,51,8.70
2016,11,22,11,52,8.70
2016,11,22,11,53,8.70
2016,11,22,11,54,8.70
2016,11,22,11,55,8.70
2016,11,22,11,56,8.70
2016,11,22,11,57,8.70
2016,11,22,11,58,8.70
2016,11,22,11,59,8.70
2016,11,22,12,00,8.70
2016,11,22,12,01,8.70
2016,11,22,12,02,8.70
2016,11,22,12,03,8.70
2016,11,22,12,04,8.70
2016,11,22,12,05,8.70
2016,11,22,12,06,8.70
2016,11,22,12,07,8.70
2016,11,22,12,08,8.70
2016,11,22,12,09,8.70
2016,11,22,12,10,8.70
2016,11,22,12,11,8.70
2016,11,22,12,12,8.70
2016,11,22,12,13,8.70
2016,11,22,12,14,8.70
2016,11,22,12,15,8.70
2016,11,22,12,16,8.70
2016,11,22,12,17,8.70
2016,11,22,12,18,8.70
2016,11,22,12,19,8.70
2016,11,22,12,20,8.70
2016,11,22,12,21,8.70
2016,11,22,12,22,8.70
2016,11,22,12,23,8.70
2016,11,22,12,24,8.70
2016,11,22,12,25,8.70
2016,11,22,12,26,8.70
2016,11,22,12,27,8.70
2016,11,22,12,28,8.70
2016,11,22,12,29,8.70
2016,11,22,12,30,8.70
2016,11,22,12,31,8.70
2016,11,22,12,32,8.70
2016,11,22,12,33,8.70
2016,11,22,12,34,8.70
2016,11,22,12,35,8.60
2016,11,22,12,36,8.60
2016,11,22,12,37,8.60
2016,11,22,12,38,8.60
2016,11,22,12,39,8.60
2016,11,22,12,40,8.60
2016,11,22,12,41,8.60
2016,11,22,12,42,8.60
2016,11,22,12,43,8.60
2016,11,22,12,44,8.60
2016,11,22,12,45,8.60
2016,11,22,12,46,8.60
2016,11,22,12,47,8.60
2016,11,22,12,48,8.60
2016,11,22,12,49,8.60
2016,11,22,12,50,8.60
2016,11,22,12,51,8.60
2016,11,22,12,52,8.60
2016,11,22,12,53,8.60
2016,11,22,12,54,8.60
2016,11,22,12,55,8.60
2016,11,22,12,56,8.60
2016,11,22,12,57,8.60
2016,11,22,12,58,8.60
2016,11,22,12,59,8.60
2016,11,22,13,00,8.60
2016,11,22,13,01,8.60
2016,11,22,13,02,8.60
2016,11,22,13,03,8.60
2016,11,22,13,04,8.60
2016,11,22,13,05,8.60
2016,11,22,13,06,8.60
2016,11,22,13,07,8.50
2016,11,22,13,08,8.50
2016,11,22,13,09,8.50
2016,11,22,13,10,8.50
2016,11,22,13,11,8.50
2016,11,22,13,12,8.50
2016,11,22,13,13,8.50
2016,11,22,13,14,8.50
2016,11,22,13,15,8.50
2016,11,22,13,16,8.50
2016,11,22,13,17,8.50
2016,11,22,13,18,8.50
2016,11,22,13,19,8.50
2016,11,22,13,20,8.50
2016,11,22,13,21,8.50
2016,11,22,13,22,8.60
2016,11,22,13,23,8.60
2016,11,22,13,24,8.60
2016,11,22,13,25,8.60
2016,11,22,13,26,8.60
2016,11,22,13,27,8.60
2016,11,22,13,28,8.60
2016,11,22,13,29,8.60
2016,11,22,13,30,8.60
2016,11,22,13,31,8.60
2016,11,22,13,32,8.60
2016,11,22,13,33,8.60
2016,11,22,13,34,8.60
2016,11,22,13,35,8.60
2016,11,22,13,36,8.60
2016,11,22,13,37,8.60
2016,11,22,13,38,8.60
2016,11,22,13,39,8.60
2016,11,22,13,40,8.60
2016,11,22,13,41,8.60
2016,11,22,13,42,8.60
2016,11,22,13,43,8.60
2016,11,22,13,44,8.60
2016,11,22,13,45,8.60
2016,11,22,13,46,8.60
2016,11,22,13,47,8.60
2016,11,22,13,48,8.60
2016,11,22,13,49,8.60
2016,11,22,13,50,8.60
2016,11,22,13,51,8.60
2016,11,22,13,52,8.60
2016,11,22,13,53,8.60
2016,11,22,13,54,8.60
2016,11,22,13,55,8.60
2016,11,22,13,56,8.60
2016,11,22,13,57,8.60
2016,11,22,13,58,8.60
2016,11,22,13,59,8.60
2016,11,22,14,00,8.60
2016,11,22,14,01,8.60
2016,11,22,14,02,8.60
2016,11,22,14,03,8.60
2016,11,22,14,04,8.60
2016,11,22,14,05,8.60
2016,11,22,14,06,8.60
2016,11,22,14,07,8.60
2016,11,22,14,08,8.60
2016,11,22,14,09,8.60
2016,11,22,14,10,8.60
2016,11,22,14,11,8.60
2016,11,22,14,12,8.60
2016,11,22,14,13,8.60
2016,11,22,14,14,8.60
2016,11,22,14,15,8.60
2016,11,22,14,16,8.60
2016,11,22,14,17,8.60
2016,11,22,14,18,8.60
2016,11,22,14,19,8.60
2016,11,22,14,20,8.60
2016,11,22,14,21,8.60
2016,11,22,14,22,8.60
2016,11,22,14,23,8.60
2016,11,22,14,24,8.60
2016,11,22,14,25,8.60
2016,11,22,14,26,8.60
2016,11,22,14,27,8.60
2016,11,22,14,28,8.60
2016,11,22,14,29,8.60
2016,11,22,14,30,8.60
2016,11,22,14,31,8.60
2016,11,22,14,32,8.60
2016,11,22,14,33,8.60
2016,11,22,14,34,8.60
2016,11,22,14,35,8.60
2016,11,22,14,36,8.60
2016,11,22,14,37,8.60
2016,11,22,14,38,8.60
2016,11,22,14,39,8.60
2016,11,22,14,40,8.60
2016,11,22,14,41,8.60
2016,11,22,14,42,8.60
2016,11,22,14,43,8.60
2016,11,22,14,44,8.60
2016,11,22,14,45,8.60
2016,11,22,14,46,8.60
2016,11,22,14,47,8.60
2016,11,22,14,48,8.70
2016,11,22,14,49,8.70
2016,11,22,14,50,8.70
2016,11,22,14,51,8.70
2016,11,22,14,52,8.70
2016,11,22,14,53,8.70
2016,11,22,14,54,8.70
2016,11,22,14,55,8.60
2016,11,22,14,56,8.60
2016,11,22,14,57,8.60
2016,11,22,14,58,8.60
2016,11,22,14,59,8.60
2016,11,22,15,00,8.60
2016,11,22,15,01,8.60
2016,11,22,15,02,8.60
2016,11,22,15,03,8.60
2016,11,22,15,04,8.60
2016,11,22,15,05,8.60
2016,11,22,15,06,8.60
2016,11,22,15,07,8.60
2016,11,22,15,08,8.60
2016,11,22,15,09,8.50
2016,11,22,15,10,8.50
2016,11,22,15,11,8.50
2016,11,22,15,12,8.50
2016,11,22,15,13,8.50
2016,11,22,15,14,8.50
2016,11,22,15,15,8.50
2016,11,22,15,16,8.50
2016,11,22,15,17,8.40
2016,11,22,15,18,8.40
2016,11,22,15,19,8.40
2016,11,22,15,20,8.40
2016,11,22,15,21,8.40
2016,11,22,15,22,8.40
2016,11,22,15,23,8.40
2016,11,22,15,24,8.50
2016,11,22,15,25,8.50
2016,11,22,15,26,8.50
2016,11,22,15,27,8.50
2016,11,22,15,28,8.50
2016,11,22,15,29,8.50
2016,11,22,15,30,8.60
2016,11,22,15,31,8.60
2016,11,22,15,32,8.60
2016,11,22,15,33,8.60
2016,11,22,15,34,8.60
2016,11,22,15,35,8.60
2016,11,22,15,36,8.60
2016,11,22,15,37,8.60
2016,11,22,15,38,8.60
2016,11,22,15,39,8.60
2016,11,22,15,40,8.60
2016,11,22,15,41,8.60
2016,11,22,15,42,8.60
2016,11,22,15,43,8.60
2016,11,22,15,44,8.60
2016,11,22,15,45,8.50
2016,11,22,15,46,8.50
2016,11,22,15,47,8.50
2016,11,22,15,48,8.50
2016,11,22,15,49,8.50
2016,11,22,15,50,8.50
2016,11,22,15,51,8.50
2016,11,22,15,52,8.50
2016,11,22,15,53,8.50
2016,11,22,15,54,8.40
2016,11,22,15,55,8.40
2016,11,22,15,56,8.40
2016,11,22,15,57,8.40
2016,11,22,15,58,8.40
2016,11,22,15,59,8.40
2016,11,22,16,00,8.40
2016,11,22,16,01,8.40
2016,11,22,16,02,8.40
2016,11,22,16,03,8.40
2016,11,22,16,04,8.40
2016,11,22,16,05,8.40
2016,11,22,16,06,8.40
2016,11,22,16,07,8.40
2016,11,22,16,08,8.40
2016,11,22,16,09,8.40
2016,11,22,16,10,8.40
2016,11,22,16,11,8.40
2016,11,22,16,12,8.40
2016,11,22,16,13,8.40
2016,11,22,16,14,8.40
2016,11,22,16,15,8.40
2016,11,22,16,16,8.40
2016,11,22,16,17,8.40
2016,11,22,16,18,8.40
2016,11,22,16,19,8.40
2016,11,22,16,20,8.40
2016,11,22,16,21,8.40
2016,11,22,16,22,8.40
2016,11,22,16,23,8.40
2016,11,22,16,24,8.40
2016,11,22,16,25,8.40
2016,11,22,16,26,8.40
2016,11,22,16,27,8.40
2016,11,22,16,28,8.40
2016,11,22,16,29,8.40
2016,11,22,16,30,8.40
2016,11,22,16,31,8.40
2016,11,22,16,32,8.40
2016,11,22,16,33,8.40
2016,11,22,16,34,8.40
2016,11,22,16,35,8.40
2016,11,22,16,36,8.40
2016,11,22,16,37,8.40
2016,11,22,16,38,8.40
2016,11,22,16,39,8.40
2016,11,22,16,40,8.40
2016,11,22,16,41,8.40
2016,11,22,16,42,8.40
2016,11,22,16,43,8.40
2016,11,22,16,44,8.40
2016,11,22,16,45,8.40
2016,11,22,16,46,8.40
2016,11,22,16,47,8.40
2016,11,22,16,48,8.40
2016,11,22,16,49,8.40
2016,11,22,16,50,8.40
2016,11,22,16,51,8.40
2016,11,22,16,52,8.40
2016,11,22,16,53,8.40
2016,11,22,16,54,8.40
2016,11,22,16,55,8.40
2016,11,22,16,56,8.40
2016,11,22,16,57,8.40
2016,11,22,16,58,8.40
2016,11,22,16,59,8.40
2016,11,22,17,00,8.40
2016,11,22,17,01,8.40
2016,11,22,17,02,8.40
2016,11,22,17,03,8.40
2016,11,22,17,04,8.40
2016,11,22,17,05,8.40
2016,11,22,17,06,8.40
2016,11,22,17,07,8.40
2016,11,22,17,08,8.40
2016,11,22,17,09,8.40
2016,11,22,17,10,8.40
2016,11,22,17,11,8.40
2016,11,22,17,12,8.40
2016,11,22,17,13,8.40
2016,11,22,17,14,8.40
2016,11,22,17,15,8.40
2016,11,22,17,16,8.40
2016,11,22,17,17,8.40
2016,11,22,17,18,8.40
2016,11,22,17,19,8.40
2016,11,22,17,20,8.40
2016,11,22,17,21,8.50
2016,11,22,17,22,8.50
2016,11,22,17,23,8.50
2016,11,22,17,24,8.50
2016,11,22,17,25,8.50
2016,11,22,17,26,8.50
2016,11,22,17,27,8.50
2016,11,22,17,28,8.60
2016,11,22,17,29,8.60
2016,11,22,17,30,8.60
2016,11,22,17,31,8.60
2016,11,22,17,32,8.60
2016,11,22,17,33,8.60
2016,11,22,17,34,8.60
2016,11,22,17,35,8.60
2016,11,22,17,36,8.60
2016,11,22,17,37,8.60
2016,11,22,17,38,8.60
2016,11,22,17,39,8.60
2016,11,22,17,40,8.60
2016,11,22,17,41,8.60
2016,11,22,17,42,8.60
2016,11,22,17,43,8.60
2016,11,22,17,44,8.60
2016,11,22,17,45,8.60
2016,11,22,17,46,8.60
2016,11,22,17,47,8.60
2016,11,22,17,48,8.60
2016,11,22,17,49,8.60
2016,11,22,17,50,8.60
2016,11,22,17,51,8.60
2016,11,22,17,52,8.60
2016,11,22,17,53,8.50
2016,11,22,17,54,8.60
2016,11,22,17,55,8.50
2016,11,22,17,56,8.50
2016,11,22,17,57,8.60
2016,11,22,17,58,8.60
2016,11,22,17,59,8.60
2016,11,22,18,00,8.60
2016,11,22,18,01,8.60
2016,11,22,18,02,8.60
2016,11,22,18,03,8.60
2016,11,22,18,04,8.60
2016,11,22,18,05,8.60
2016,11,22,18,06,8.60
2016,11,22,18,07,8.60
2016,11,22,18,08,8.60
2016,11,22,18,09,8.60
2016,11,22,18,10,8.60
2016,11,22,18,11,8.60
2016,11,22,18,12,8.60
2016,11,22,18,13,8.60
2016,11,22,18,14,8.60
2016,11,22,18,15,8.60
2016,11,22,18,16,8.60
2016,11,22,18,17,8.60
2016,11,22,18,18,8.60
2016,11,22,18,19,8.60
2016,11,22,18,20,8.60
2016,11,22,18,21,8.60
2016,11,22,18,22,8.60
2016,11,22,18,23,8.60
2016,11,22,18,24,8.60
2016,11,22,18,25,8.60
2016,11,22,18,26,8.60
2016,11,22,18,27,8.60
2016,11,22,18,28,8.60
2016,11,22,18,29,8.60
2016,11,22,18,30,8.60
2016,11,22,18,31,8.60
2016,11,22,18,32,8.60
2016,11,22,18,33,8.60
2016,11,22,18,34,8.60
2016,11,22,18,35,8.60
2016,11,22,18,36,8.60
2016,11,22,18,37,8.60
2016,11,22,18,38,8.60
2016,11,22,18,39,8.60
2016,11,22,18,40,8.60
2016,11,22,18,41,8.60
2016,11,22,18,42,8.60
2016,11,22,18,43,8.60
2016,11,22,18,44,8.50
2016,11,22,18,45,8.50
2016,11,22,18,46,8.50
2016,11,22,18,47,8.50
2016,11,22,18,48,8.50
2016,11,22,18,49,8.50
2016,11,22,18,50,8.50
2016,11,22,18,51,8.50
2016,11,22,18,52,8.50
2016,11,22,18,53,8.50
2016,11,22,18,54,8.50
2016,11,22,18,55,8.50
2016,11,22,18,56,8.50
2016,11,22,18,57,8.50
2016,11,22,18,58,8.50
2016,11,22,18,59,8.50
2016,11,22,19,00,8.50
2016,11,22,19,01,8.50
2016,11,22,19,02,8.50
2016,11,22,19,03,8.50
2016,11,22,19,04,8.50
2016,11,22,19,05,8.50
2016,11,22,19,06,8.50
2016,11,22,19,07,8.50
2016,11,22,19,08,8.50
2016,11,22,19,09,8.50
2016,11,22,19,10,8.50
2016,11,22,19,11,8.50
2016,11,22,19,12,8.50
2016,11,22,19,13,8.50
2016,11,22,19,14,8.50
2016,11,22,19,15,8.50
2016,11,22,19,16,8.50
2016,11,22,19,17,8.50
2016,11,22,19,18,8.50
2016,11,22,19,19,8.50
2016,11,22,19,20,8.50
2016,11,22,19,21,8.50
2016,11,22,19,22,8.50
2016,11,22,19,23,8.50
2016,11,22,19,24,8.50
2016,11,22,19,25,8.50
2016,11,22,19,26,8.40
2016,11,22,19,27,8.40
2016,11,22,19,28,8.40
2016,11,22,19,29,8.40
2016,11,22,19,30,8.40
2016,11,22,19,31,8.40
2016,11,22,19,32,8.40
2016,11,22,19,33,8.40
2016,11,22,19,34,8.40
2016,11,22,19,35,8.40
2016,11,22,19,36,8.40
2016,11,22,19,37,8.40
2016,11,22,19,38,8.40
2016,11,22,19,39,8.40
2016,11,22,19,40,8.40
2016,11,22,19,41,8.40
2016,11,22,19,42,8.40
2016,11,22,19,43,8.40
2016,11,22,19,44,8.40
2016,11,22,19,45,8.40
2016,11,22,19,46,8.40
2016,11,22,19,47,8.40
2016,11,22,19,48,8.40
2016,11,22,19,49,8.40
2016,11,22,19,50,8.40
2016,11,22,19,51,8.40
2016,11,22,19,52,8.40
2016,11,22,19,53,8.40
2016,11,22,19,54,8.40
2016,11,22,19,55,8.40
2016,11,22,19,56,8.40
2016,11,22,19,57,8.40
2016,11,22,19,58,8.40
2016,11,22,19,59,8.40
2016,11,22,20,00,8.40
2016,11,22,20,01,8.40
2016,11,22,20,02,8.40
2016,11,22,20,03,8.40
2016,11,22,20,04,8.40
2016,11,22,20,05,8.40
2016,11,22,20,06,8.40
2016,11,22,20,07,8.40
2016,11,22,20,08,8.40
2016,11,22,20,09,8.40
2016,11,22,20,10,8.40
2016,11,22,20,11,8.40
2016,11,22,20,12,8.40
2016,11,22,20,13,8.40
2016,11,22,20,14,8.40
2016,11,22,20,15,8.40
2016,11,22,20,16,8.40
2016,11,22,20,17,8.40
2016,11,22,20,18,8.40
2016,11,22,20,19,8.40
2016,11,22,20,20,8.40
2016,11,22,20,21,8.40
2016,11,22,20,22,8.40
2016,11,22,20,23,8.40
2016,11,22,20,24,8.40
2016,11,22,20,25,8.40
2016,11,22,20,26,8.40
2016,11,22,20,27,8.40
2016,11,22,20,28,8.40
2016,11,22,20,29,8.40
2016,11,22,20,30,8.40
2016,11,22,20,31,8.40
2016,11,22,20,32,8.40
2016,11,22,20,33,8.50
2016,11,22,20,34,8.50
2016,11,22,20,35,8.50
2016,11,22,20,36,8.50
2016,11,22,20,37,8.50
2016,11,22,20,38,8.50
2016,11,22,20,39,8.50
2016,11,22,20,40,8.50
2016,11,22,20,41,8.50
2016,11,22,20,42,8.50
2016,11,22,20,43,8.50
2016,11,22,20,44,8.50
2016,11,22,20,45,8.50
2016,11,22,20,46,8.50
2016,11,22,20,47,8.50
2016,11,22,20,48,8.50
2016,11,22,20,49,8.50
2016,11,22,20,50,8.50
2016,11,22,20,51,8.50
2016,11,22,20,52,8.50
2016,11,22,20,53,8.50
2016,11,22,20,54,8.50
2016,11,22,20,55,8.50
2016,11,22,20,56,8.40
2016,11,22,20,57,8.50
2016,11,22,20,58,8.40
2016,11,22,20,59,8.40
2016,11,22,21,00,8.40
2016,11,22,21,01,8.50
2016,11,22,21,02,8.40
2016,11,22,21,03,8.40
2016,11,22,21,04,8.50
2016,11,22,21,05,8.40
2016,11,22,21,06,8.50
2016,11,22,21,07,8.50
2016,11,22,21,08,8.50
2016,11,22,21,09,8.50
2016,11,22,21,10,8.50
2016,11,22,21,11,8.50
2016,11,22,21,12,8.50
2016,11,22,21,13,8.50
2016,11,22,21,14,8.50
2016,11,22,21,15,8.50
2016,11,22,21,16,8.50
2016,11,22,21,17,8.50
2016,11,22,21,18,8.50
2016,11,22,21,19,8.50
2016,11,22,21,20,8.50
2016,11,22,21,21,8.50
2016,11,22,21,22,8.50
2016,11,22,21,23,8.50
2016,11,22,21,24,8.50
2016,11,22,21,25,8.50
2016,11,22,21,26,8.50
2016,11,22,21,27,8.50
2016,11,22,21,28,8.40
2016,11,22,21,29,8.40
2016,11,22,21,30,8.40
2016,11,22,21,31,8.40
2016,11,22,21,32,8.40
2016,11,22,21,33,8.40
2016,11,22,21,34,8.40
2016,11,22,21,35,8.40
2016,11,22,21,36,8.40
2016,11,22,21,37,8.40
2016,11,22,21,38,8.40
2016,11,22,21,39,8.40
2016,11,22,21,40,8.40
2016,11,22,21,41,8.40
2016,11,22,21,42,8.40
2016,11,22,21,43,8.40
2016,11,22,21,44,8.40
2016,11,22,21,45,8.40
2016,11,22,21,46,8.40
2016,11,22,21,47,8.40
2016,11,22,21,48,8.40
2016,11,22,21,49,8.40
2016,11,22,21,50,8.40
2016,11,22,21,51,8.40
2016,11,22,21,52,8.40
2016,11,22,21,53,8.40
2016,11,22,21,54,8.40
2016,11,22,21,55,8.30
2016,11,22,21,56,8.30
2016,11,22,21,57,8.30
2016,11,22,21,58,8.30
2016,11,22,21,59,8.30
2016,11,22,22,00,8.30
2016,11,22,22,01,8.30
2016,11,22,22,02,8.30
2016,11,22,22,03,8.30
2016,11,22,22,04,8.30
2016,11,22,22,05,8.30
2016,11,22,22,06,8.30
2016,11,22,22,07,8.20
2016,11,22,22,08,8.20
2016,11,22,22,09,8.20
2016,11,22,22,10,8.20
2016,11,22,22,11,8.20
2016,11,22,22,12,8.20
2016,11,22,22,13,8.10
2016,11,22,22,14,8.10
2016,11,22,22,15,8.10
2016,11,22,22,16,8.10
2016,11,22,22,17,8.00
2016,11,22,22,18,8.00
2016,11,22,22,19,8.00
2016,11,22,22,20,8.00
2016,11,22,22,21,8.00
2016,11,22,22,22,7.90
2016,11,22,22,23,7.90
2016,11,22,22,24,7.90
2016,11,22,22,25,7.90
2016,11,22,22,26,7.80
2016,11,22,22,27,7.80
2016,11,22,22,28,7.80
2016,11,22,22,29,7.80
2016,11,22,22,30,7.80